Terminal Aerodrome Forecast
Issued by NWS

Home | Current Version | Previous Version | Text Only | Print | Product List | Glossary On
Versions: 1 2 3 4 5 6 7 8 9 10 11 12 13 14 15 16 17 18 19 20 21 22 23 24 25 26 27 28 29 30 31 32 33
000
FTUS43 KDMX 301717 AAB
TAFOTM
TAF AMD
KOTM 301717Z 3017/0112 10011KT P6SM OVC013
     FM301900 12012KT P6SM SCT009
     FM010400 13013KT P6SM BKN024 OVC070=

USA.gov is the U.S. government's official web portal to all federal, state and local government web resources and services.